| time (UTC) | temp F | wind direction | speed MPH | gust MPH | rain 1hr in | rain 24hr in | rain mn in | humidity % | barometer mb |
| 20260506174504 | 53 | 159 | 1.0 | 4.0 | 0.00 | 0.00 | 0.00 | 60 | 1012.1 |
| 20260506173004 | 54 | 160 | 2.0 | 6.0 | 0.00 | 0.00 | 0.00 | 57 | 1011.9 |
| 20260506171505 | 55 | 157 | 3.0 | 8.0 | 0.00 | 0.00 | 0.00 | 55 | 1011.9 |
| 20260506170059 | 55 | 176 | 3.0 | 7.0 | 0.00 | 0.00 | 0.00 | 54 | 1012.0 |
| 20260506164557 | 55 | 161 | 4.0 | 9.0 | 0.00 | 0.00 | 0.00 | 52 | 1012.1 |
| 20260506163100 | 55 | 173 | 4.0 | 11.0 | 0.00 | 0.00 | 0.00 | 49 | 1012.2 |
| 20260506161558 | 55 | 173 | 4.0 | 10.0 | 0.00 | 0.00 | 0.00 | 48 | 1012.3 |
| 20260506160106 | 55 | 173 | 5.0 | 11.0 | 0.00 | 0.00 | 0.00 | 47 | 1012.3 |
| 20260506154553 | 53 | 150 | 4.0 | 9.0 | 0.00 | 0.00 | 0.00 | 64 | 1012.5 |
| 20260506153051 | 52 | 166 | 3.0 | 5.0 | 0.00 | 0.00 | 0.00 | 69 | 1012.5 |
| 20260506151549 | 51 | 126 | 6.0 | 10.0 | 0.00 | 0.00 | 0.00 | 72 | 1012.6 |
| 20260506150007 | 51 | 130 | 5.0 | 9.0 | 0.00 | 0.00 | 0.00 | 72 | 1012.7 |
| 20260506144501 | 52 | 149 | 4.0 | 9.0 | 0.00 | 0.00 | 0.00 | 69 | 1012.9 |
| 20260506143059 | 54 | 134 | 3.0 | 8.0 | 0.00 | 0.00 | 0.00 | 66 | 1013.0 |
| 20260506141558 | 55 | 135 | 5.0 | 9.0 | 0.00 | 0.00 | 0.00 | 62 | 1013.0 |
| 20260506140042 | 55 | 144 | 6.0 | 9.0 | 0.00 | 0.00 | 0.00 | 60 | 1013.2 |
| 20260506134605 | 55 | 175 | 6.0 | 11.0 | 0.00 | 0.00 | 0.00 | 56 | 1013.3 |
| 20260506133030 | 55 | 115 | 6.0 | 10.0 | 0.00 | 0.00 | 0.00 | 55 | 1013.4 |
| 20260506131528 | 54 | 150 | 6.0 | 12.0 | 0.00 | 0.00 | 0.00 | 55 | 1013.6 |
| 20260506130056 | 54 | 156 | 6.0 | 11.0 | 0.00 | 0.00 | 0.00 | 47 | 1013.6 |
| 20260506124552 | 53 | 160 | 7.0 | 14.0 | 0.00 | 0.00 | 0.00 | 43 | 1013.6 |
| 20260506123048 | 52 | 179 | 6.0 | 10.0 | 0.00 | 0.00 | 0.00 | 46 | 1013.7 |
| 20260506121544 | 52 | 195 | 6.0 | 11.0 | 0.00 | 0.00 | 0.00 | 47 | 1013.8 |
| 20260506120014 | 51 | 165 | 6.0 | 12.0 | 0.00 | 0.00 | 0.00 | 51 | 1013.9 |
| 20260506114521 | 51 | 142 | 5.0 | 10.0 | 0.00 | 0.00 | 0.00 | 55 | 1013.9 |
| 20260506113008 | 52 | 157 | 5.0 | 10.0 | 0.00 | 0.00 | 0.00 | 54 | 1013.9 |
| 20260506111507 | 51 | 156 | 5.0 | 10.0 | 0.00 | 0.00 | 0.00 | 53 | 1013.9 |
| 20260506110014 | 51 | 157 | 4.0 | 8.0 | 0.00 | 0.00 | 0.00 | 56 | 1014.0 |
| 20260506104508 | 50 | 145 | 4.0 | 8.0 | 0.00 | 0.00 | 0.00 | 54 | 1014.0 |
| 20260506103018 | 48 | 163 | 4.0 | 8.0 | 0.00 | 0.00 | 0.00 | 56 | 1014.0 |
| 20260506101506 | 48 | 138 | 7.0 | 10.0 | 0.00 | 0.00 | 0.00 | 52 | 1014.0 |
| 20260506100006 | 48 | 131 | 5.0 | 9.0 | 0.00 | 0.00 | 0.00 | 50 | 1014.0 |
| 20260506094509 | 47 | 131 | 5.0 | 9.0 | 0.00 | 0.00 | 0.00 | 50 | 1013.9 |
| 20260506093005 | 47 | 128 | 6.0 | 9.0 | 0.00 | 0.00 | 0.00 | 51 | 1014.0 |
| 20260506091505 | 47 | 134 | 3.0 | 9.0 | 0.00 | 0.00 | 0.00 | 53 | 1014.0 |
| 20260506090006 | 47 | 144 | 6.0 | 8.0 | 0.00 | 0.00 | 0.00 | 51 | 1014.0 |
| 20260506084506 | 47 | 146 | 5.0 | 8.0 | 0.00 | 0.00 | 0.00 | 49 | 1014.0 |
| 20260506083006 | 48 | 166 | 4.0 | 8.0 | 0.00 | 0.00 | 0.00 | 50 | 1014.0 |
| 20260506081506 | 47 | 122 | 2.0 | 7.0 | 0.00 | 0.00 | 0.00 | 49 | 1014.0 |
| 20260506073019 | 46 | 68 | 3.0 | 6.0 | 0.00 | 0.00 | 0.00 | 49 | 1014.1 |
| 20260506071520 | 45 | 54 | 2.0 | 4.0 | 0.00 | 0.00 | 0.00 | 51 | 1014.0 |
| 20260506061510 | 42 | 290 | 1.0 | 8.0 | 0.00 | 0.00 | 0.00 | 56 | 1013.9 |
| 20260506050108 | 37 | 240 | 2.0 | 6.0 | 0.00 | 0.00 | 0.00 | 68 | 1014.0 |
| 20260506044601 | 36 | 240 | 2.0 | 5.0 | 0.00 | 0.00 | 0.00 | 69 | 1014.0 |
| 20260506043059 | 36 | 277 | 0.0 | 8.0 | 0.00 | 0.00 | 0.00 | 69 | 1014.0 |
| 20260506041603 | 36 | 273 | 3.0 | 8.0 | 0.00 | 0.00 | 0.00 | 69 | 1013.9 |
| 20260506040101 | 35 | 254 | 5.0 | 9.0 | 0.00 | 0.00 | 0.00 | 70 | 1013.9 |
| 20260506034601 | 35 | 257 | 3.0 | 9.0 | 0.00 | 0.00 | 0.00 | 70 | 1013.7 |
| 20260506033054 | 36 | 254 | 4.0 | 9.0 | 0.00 | 0.00 | 0.00 | 69 | 1013.8 |
| 20260506031552 | 36 | 254 | 4.0 | 7.0 | 0.00 | 0.00 | 0.00 | 68 | 1013.7 |
| 20260506030053 | 36 | 242 | 4.0 | 11.0 | 0.00 | 0.00 | 0.00 | 68 | 1013.6 |
| 20260506024559 | 36 | 246 | 5.0 | 11.0 | 0.00 | 0.00 | 0.00 | 68 | 1013.6 |
| 20260506023048 | 37 | 236 | 5.0 | 11.0 | 0.00 | 0.00 | 0.00 | 68 | 1013.7 |
| 20260506021545 | 37 | 246 | 5.0 | 10.0 | 0.00 | 0.00 | 0.00 | 68 | 1013.7 |
| 20260506020040 | 37 | 265 | 4.0 | 10.0 | 0.00 | 0.00 | 0.00 | 68 | 1013.6 |
| 20260506014535 | 37 | 248 | 3.0 | 9.0 | 0.00 | 0.00 | 0.00 | 67 | 1013.7 |
| 20260506013034 | 38 | 242 | 3.0 | 9.0 | 0.00 | 0.00 | 0.00 | 66 | 1013.6 |
| 20260506011558 | 38 | 239 | 3.0 | 10.0 | 0.00 | 0.00 | 0.00 | 66 | 1013.5 |
| 20260506010047 | 38 | 244 | 5.0 | 12.0 | 0.00 | 0.00 | 0.00 | 65 | 1013.3 |
| 20260506004558 | 38 | 242 | 3.0 | 7.0 | 0.00 | 0.00 | 0.00 | 66 | 1013.4 |
| 20260506003041 | 38 | 236 | 2.0 | 10.0 | 0.00 | 0.00 | 0.00 | 65 | 1013.4 |
| 20260506001543 | 39 | 236 | 3.0 | 13.0 | 0.00 | 0.00 | 0.00 | 64 | 1013.4 |
| 20260506000056 | 39 | 246 | 6.0 | 10.0 | 0.00 | 0.00 | 0.00 | 63 | 1013.4 |
| 20260505234541 | 39 | 229 | 2.0 | 10.0 | 0.00 | 0.00 | 0.00 | 63 | 1013.4 |
| 20260505233028 | 39 | 237 | 3.0 | 9.0 | 0.00 | 0.00 | 0.00 | 63 | 1013.5 |
| 20260505231526 | 40 | 235 | 4.0 | 10.0 | 0.00 | 0.00 | 0.00 | 61 | 1013.4 |
| 20260505230018 | 40 | 234 | 3.0 | 9.0 | 0.00 | 0.00 | 0.00 | 60 | 1013.5 |
| 20260505224511 | 40 | 238 | 4.0 | 9.0 | 0.00 | 0.00 | 0.00 | 59 | 1013.5 |
| 20260505223008 | 41 | 243 | 2.0 | 5.0 | 0.00 | 0.00 | 0.00 | 58 | 1013.4 |
| 20260505221504 | 41 | 226 | 1.0 | 4.0 | 0.00 | 0.00 | 0.00 | 56 | 1013.3 |
| 20260505220010 | 42 | 259 | 1.0 | 9.0 | 0.00 | 0.00 | 0.00 | 55 | 1013.3 |
| 20260505214511 | 43 | 238 | 2.0 | 8.0 | 0.00 | 0.00 | 0.00 | 54 | 1013.2 |
| 20260505213004 | 43 | 251 | 3.0 | 17.0 | 0.00 | 0.00 | 0.00 | 52 | 1013.1 |
| 20260505211601 | 43 | 262 | 7.0 | 13.0 | 0.00 | 0.00 | 0.00 | 51 | 1013.0 |
| 20260505210100 | 44 | 244 | 6.0 | 12.0 | 0.00 | 0.00 | 0.00 | 50 | 1012.9 |
| 20260505204601 | 44 | 234 | 6.0 | 17.0 | 0.00 | 0.00 | 0.00 | 49 | 1012.8 |
| 20260505203101 | 45 | 240 | 9.0 | 15.0 | 0.00 | 0.00 | 0.00 | 48 | 1012.8 |
| 20260505201552 | 45 | 260 | 6.0 | 13.0 | 0.00 | 0.00 | 0.00 | 47 | 1012.7 |
| 20260505200047 | 45 | 244 | 5.0 | 10.0 | 0.00 | 0.00 | 0.00 | 51 | 1012.7 |
| 20260505194553 | 47 | 229 | 1.0 | 5.0 | 0.00 | 0.00 | 0.00 | 48 | 1012.5 |
| 20260505193039 | 47 | 231 | 1.0 | 10.0 | 0.00 | 0.00 | 0.00 | 46 | 1012.5 |
| 20260505191547 | 48 | 200 | 2.0 | 9.0 | 0.00 | 0.00 | 0.00 | 45 | 1012.3 |
| 20260505190038 | 49 | 233 | 0.0 | 8.0 | 0.00 | 0.00 | 0.00 | 44 | 1012.2 |
| 20260505184536 | 50 | 221 | 4.0 | 12.0 | 0.00 | 0.00 | 0.00 | 43 | 1012.0 |
| 20260505183028 | 51 | 236 | 9.0 | 11.0 | 0.00 | 0.00 | 0.00 | 41 | 1011.9 |
| 20260505181526 | 51 | 259 | 6.0 | 14.0 | 0.00 | 0.00 | 0.00 | 42 | 1011.9 |
| 20260505180032 | 52 | 246 | 0.0 | 8.0 | 0.00 | 0.00 | 0.00 | 42 | 1011.7 |